Location: Newark
(3.0500°N, 36.0167°E)
Time: 18:26:59
(UTC+00:00)

A-11 Canister half - Pass Details

Date: 02 September 2019
Orbit: 1527 x 1682 km, 47.3° (Epoch: 17 October)

Event Time Altitude Azimuth Distance (km) Brightness Sun altitude
Rises 04:30:41 0° 235° (SW) 4,691 11.0 14.0°
Reaches altitude 10° 04:33:52 10° 241° (WSW) 3,719 10.5 14.8°
Maximum altitude 04:42:44 46° 311° (NW) 2,012 9.6 17.0°
Drops below altitude 10° 04:51:52 10° 22° (NNE) 3,819 11.6 19.2°
Sets 04:55:13 0° 28° (NNE) 4,827 12.1 20.1°
